Location: Capelle
(50.3413°N, 1.9974°E)
Time: 20:17:29
(UTC+00:00)

Meteor 1-23 Rocket - Pass Details

Date: 12 January 2026
Orbit: 840 x 883 km, 81.3° (Epoch: 16 February)

Event Time Altitude Azimuth Distance (km) Brightness Sun altitude
Rises 17:43:59 0° 173° (S) 3,440 7.5 -13.9°
Reaches altitude 10° 17:46:28 10° 169° (S) 2,501 6.7 -14.3°
Maximum altitude 17:51:57 51° 95° (E) 1,068 4.4 -15.1°
Drops below altitude 10° 17:57:23 10° 21° (NNE) 2,491 6.3 -16.0°
Enters shadow 17:58:59 - 17° (NNE) 3,090 6.8 -16.2°
